Location: Bronnegerveen
(52.9548°N, 6.8388°E)
Time: 01:24:45
(UTC+00:00)

USA 307 - Pass Details

Date: 15 June 2025
Orbit: 495 x 502 km, 54.0° (Epoch: 10 March)

Event Time Altitude Azimuth Distance (km) Brightness Sun altitude
Exits shadow 00:20:42 13° 238° (WSW) 1,480 4.6 -13.0°
Maximum altitude 00:24:05 65° 157° (SSE) 551 2.6 -12.9°
Drops below altitude 10° 00:28:01 10° 76° (ENE) 1,701 5.7 -12.8°
Sets 00:30:12 0° 73° (ENE) 2,550 6.7 -12.7°
